When you browse on this site, cookies collect data to enhance your experience and personalize the content and advertising you see.
Visit our Privacy Policy to learn more. By continuing to use the site, you agree to this use of cookies and data.
  • En España
  • Lista de países
  • Para 7 días
  • Temperatura del agua
  • Mapa Satelital
  • El tiempo en el mapa
  • Informadores
  • user-avatar
    Iniciar sesión

    Tiempo cada hora Galway

    Hoy, 21 Enero, Lunes

    Tiempo Temperatura Precipitaciones Viento Presión Humedad
    00:00 +2°C° 0 mm 2 mps 769 mmHg 82%
    01:00 +2°C° 0 mm 2 mps 768 mmHg 83%
    02:00 +2°C° 0 mm 3 mps 768 mmHg 84%
    03:00 +1°C° 0 mm 4 mps 767 mmHg 84%
    04:00 +1°C° 0 mm 4 mps 767 mmHg 85%
    05:00 +1°C° 0 mm 5 mps 766 mmHg 85%
    06:00 +2°C° 0 mm 5 mps 765 mmHg 84%
    07:00 +2°C° 0 mm 6 mps 764 mmHg 83%
    08:00 +3°C° 0 mm 7 mps 763 mmHg 82%
    09:00 +2°C° 0.2 mm 8 mps 761 mmHg 82%
    10:00 +3°C° 0.2 mm 9 mps 760 mmHg 82%
    11:00 +5°C° 0.2 mm 10 mps 758 mmHg 82%
    12:00 +5°C° 2.1 mm 10 mps 757 mmHg 84%
    13:00 +3°C° 2.1 mm 10 mps 756 mmHg 87%
    14:00 +3°C° 2.1 mm 9 mps 755 mmHg 89%
    15:00 +2°C° 0.7 mm 9 mps 755 mmHg 84%
    16:00 +1°C° 0.7 mm 8 mps 755 mmHg 78%
    17:00 0°C° 0.7 mm 7 mps 755 mmHg 73%
    18:00 0°C° 0.1 mm 7 mps 755 mmHg 73%
    19:00 0°C° 0.1 mm 7 mps 755 mmHg 74%
    20:00 0°C° 0.1 mm 7 mps 756 mmHg 74%
    21:00 +1°C° 0.2 mm 6 mps 755 mmHg 75%
    22:00 +1°C° 0.2 mm 6 mps 755 mmHg 75%
    23:00 +1°C° 0.2 mm 5 mps 755 mmHg 76%

    Mañana, 22 Enero, Martes

    Tiempo Temperatura Precipitaciones Viento Presión Humedad
    00:00 +1°C° 0.3 mm 6 mps 754 mmHg 78%
    01:00 +1°C° 0.3 mm 6 mps 754 mmHg 81%
    02:00 +1°C° 0.3 mm 6 mps 753 mmHg 84%
    03:00 +1°C° 0.3 mm 6 mps 753 mmHg 82%
    04:00 +1°C° 0.3 mm 6 mps 753 mmHg 79%
    05:00 0°C° 0.3 mm 7 mps 752 mmHg 77%
    06:00 0°C° 0.2 mm 7 mps 753 mmHg 78%
    07:00 -1°C° 0.2 mm 6 mps 753 mmHg 78%
    08:00 -1°C° 0.2 mm 6 mps 753 mmHg 78%
    09:00 +1°C° 0.1 mm 6 mps 753 mmHg 78%
    10:00 +1°C° 0.1 mm 6 mps 753 mmHg 78%
    11:00 +2°C° 0.1 mm 6 mps 753 mmHg 79%
    12:00 +2°C° 0.1 mm 5 mps 753 mmHg 79%
    13:00 +2°C° 0.1 mm 5 mps 753 mmHg 80%
    14:00 +2°C° 0.1 mm 5 mps 753 mmHg 81%
    15:00 +3°C° 0.2 mm 4 mps 753 mmHg 83%
    16:00 +2°C° 0.2 mm 3 mps 753 mmHg 84%
    17:00 +2°C° 0.2 mm 3 mps 752 mmHg 86%
    18:00 +2°C° 0 mm 3 mps 753 mmHg 86%
    19:00 +2°C° 0 mm 3 mps 753 mmHg 86%
    20:00 +1°C° 0 mm 3 mps 753 mmHg 86%
    21:00 +2°C° 0 mm 2 mps 753 mmHg 87%
    22:00 +2°C° 0 mm 2 mps 754 mmHg 87%
    23:00 +2°C° 0 mm 2 mps 754 mmHg 87%

    Pasado mañana, 23 Enero, Miércoles

    Tiempo Temperatura Precipitaciones Viento Presión Humedad
    00:00 +2°C° 0.1 mm 2 mps 754 mmHg 89%
    01:00 +3°C° 0.1 mm 2 mps 754 mmHg 90%
    02:00 +4°C° 0.1 mm 2 mps 755 mmHg 91%
    03:00 +4°C° 0.1 mm 2 mps 755 mmHg 92%
    04:00 +4°C° 0.1 mm 2 mps 755 mmHg 92%
    05:00 +5°C° 0.1 mm 1 mps 755 mmHg 93%
    06:00 +5°C° 0.1 mm 1 mps 755 mmHg 93%
    07:00 +5°C° 0.1 mm 1 mps 756 mmHg 93%
    08:00 +5°C° 0.1 mm 1 mps 756 mmHg 94%
    09:00 +6°C° 0 mm 1 mps 756 mmHg 92%
    10:00 +5°C° 0 mm 0 mps 757 mmHg 91%
    11:00 +6°C° 0 mm 0 mps 757 mmHg 90%
    12:00 +6°C° 0.1 mm 0 mps 757 mmHg 91%
    13:00 +7°C° 0.1 mm 1 mps 757 mmHg 92%
    14:00 +7°C° 0.1 mm 1 mps 757 mmHg 93%
    15:00 +7°C° 0 mm 1 mps 757 mmHg 94%
    16:00 +7°C° 0 mm 1 mps 758 mmHg 95%
    17:00 +6°C° 0 mm 2 mps 758 mmHg 95%
    18:00 +6°C° 0.1 mm 2 mps 758 mmHg 96%
    19:00 +6°C° 0.1 mm 2 mps 759 mmHg 97%
    20:00 +7°C° 0.1 mm 2 mps 759 mmHg 98%
    21:00 +7°C° 0.2 mm 2 mps 759 mmHg 98%
    22:00 +8°C° 0.2 mm 2 mps 759 mmHg 98%
    23:00 +8°C° 0.2 mm 3 mps 759 mmHg 98%

    24 Enero, Jueves

    Tiempo Temperatura Precipitaciones Viento Presión Humedad
    00:00 +9°C° 0.1 mm 3 mps 759 mmHg 98%
    01:00 +8°C° 0.1 mm 4 mps 759 mmHg 97%
    02:00 +9°C° 0.1 mm 5 mps 759 mmHg 97%
    03:00 +9°C° 0 mm 5 mps 759 mmHg 96%
    04:00 +9°C° 0 mm 5 mps 759 mmHg 96%
    05:00 +9°C° 0 mm 5 mps 759 mmHg 96%
    06:00 +9°C° 0 mm 5 mps 760 mmHg 95%
    07:00 +9°C° 0 mm 5 mps 760 mmHg 94%
    08:00 +9°C° 0 mm 5 mps 761 mmHg 94%
    09:00 +9°C° 0 mm 5 mps 761 mmHg 92%
    10:00 +9°C° 0 mm 5 mps 761 mmHg 90%
    11:00 +9°C° 0 mm 5 mps 762 mmHg 87%
    12:00 +9°C° 0 mm 5 mps 762 mmHg 88%
    13:00 +9°C° 0 mm 5 mps 762 mmHg 88%
    14:00 +10°C° 0 mm 5 mps 762 mmHg 89%
    15:00 +9°C° 0 mm 5 mps 762 mmHg 90%
    16:00 +9°C° 0 mm 5 mps 762 mmHg 90%
    17:00 +8°C° 0 mm 5 mps 762 mmHg 91%
    18:00 +8°C° 0 mm 5 mps 763 mmHg 92%
    19:00 +8°C° 0 mm 5 mps 763 mmHg 93%
    20:00 +8°C° 0 mm 5 mps 763 mmHg 93%
    21:00 +8°C° 0 mm 5 mps 763 mmHg 93%
    22:00 +9°C° 0 mm 5 mps 763 mmHg 92%
    23:00 +9°C° 0 mm 5 mps 763 mmHg 91%

    25 Enero, Viernes

    Tiempo Temperatura Precipitaciones Viento Presión Humedad
    00:00 +9°C° 0 mm 6 mps 762 mmHg 90%
    01:00 +8°C° 0 mm 6 mps 762 mmHg 89%
    02:00 +8°C° 0 mm 6 mps 762 mmHg 87%
    03:00 +8°C° 0 mm 6 mps 762 mmHg 88%
    04:00 +8°C° 0 mm 6 mps 762 mmHg 90%
    05:00 +7°C° 0 mm 6 mps 761 mmHg 91%
    06:00 +8°C° 0 mm 6 mps 761 mmHg 90%
    07:00 +8°C° 0 mm 6 mps 761 mmHg 90%
    08:00 +8°C° 0 mm 6 mps 761 mmHg 90%
    09:00 +8°C° 0 mm 6 mps 761 mmHg 90%
    10:00 +9°C° 0 mm 6 mps 761 mmHg 91%
    11:00 +9°C° 0 mm 6 mps 761 mmHg 91%
    12:00 +9°C° 0.1 mm 6 mps 761 mmHg 92%
    13:00 +9°C° 0.1 mm 6 mps 761 mmHg 92%
    14:00 +9°C° 0.1 mm 5 mps 760 mmHg 93%
    15:00 +9°C° 0.5 mm 5 mps 760 mmHg 94%
    16:00 +9°C° 0.5 mm 5 mps 760 mmHg 95%
    17:00 +9°C° 0.5 mm 5 mps 759 mmHg 96%
    18:00 +9°C° 0.6 mm 5 mps 759 mmHg 96%
    19:00 +9°C° 0.6 mm 5 mps 758 mmHg 96%
    20:00 +9°C° 0.6 mm 5 mps 758 mmHg 96%
    21:00 +9°C° 1.2 mm 6 mps 757 mmHg 96%
    22:00 +9°C° 1.2 mm 7 mps 756 mmHg 95%
    23:00 +10°C° 1.2 mm 8 mps 755 mmHg 94%

    26 Enero, Sábado

    Tiempo Temperatura Precipitaciones Viento Presión Humedad
    00:00 +10°C° 0.5 mm 8 mps 753 mmHg 94%
    01:00 +10°C° 0.5 mm 8 mps 751 mmHg 93%
    02:00 +9°C° 0.5 mm 8 mps 749 mmHg 93%
    03:00 +8°C° 0.3 mm 9 mps 747 mmHg 90%
    04:00 +7°C° 0.3 mm 9 mps 744 mmHg 88%
    05:00 +7°C° 0.3 mm 9 mps 742 mmHg 85%
    06:00 +7°C° 0.1 mm 6 mps 742 mmHg 87%
    07:00 +7°C° 0.1 mm 4 mps 742 mmHg 89%
    08:00 +8°C° 0.1 mm 1 mps 742 mmHg 91%
    09:00 +5°C° 0.2 mm 6 mps 743 mmHg 88%
    10:00 +5°C° 0.2 mm 10 mps 745 mmHg 85%
    11:00 +4°C° 0.2 mm 14 mps 746 mmHg 83%
    12:00 +4°C° 0.1 mm 13 mps 748 mmHg 80%
    13:00 +3°C° 0.1 mm 11 mps 750 mmHg 77%
    14:00 +3°C° 0.1 mm 10 mps 751 mmHg 74%
    15:00 +2°C° 0 mm 9 mps 752 mmHg 75%
    16:00 +3°C° 0 mm 7 mps 753 mmHg 76%
    17:00 +2°C° 0 mm 5 mps 755 mmHg 77%
    18:00 +2°C° 0.1 mm 5 mps 755 mmHg 78%
    19:00 +3°C° 0.1 mm 4 mps 755 mmHg 79%
    20:00 +3°C° 0.1 mm 4 mps 756 mmHg 80%
    21:00 +3°C° 0.1 mm 4 mps 756 mmHg 81%
    22:00 +3°C° 0.1 mm 3 mps 756 mmHg 81%
    23:00 +3°C° 0.1 mm 3 mps 756 mmHg 82%
    Mostrar más